Home > Weather > Einsiedeln > Past weeks

Flag for Switzerland Weather for the Past 2 Weeks in Einsiedeln, Schwyz, Switzerland

Now
39 °F

Chilly.


Feels Like: 32 °F
Forecast: 29 / 38 °F
Wind: 10 mph from North

Location: Altdorf

Current Time: Feb 12, 2016 at 11:39:25 AM

Latest Report: Feb 12, 2016 at 11:00 AM


Visibility: N/A

Pressure: 29.57 "Hg (26.51 "Hg at 887m altitude)

Humidity: 68%

Dew point: 29 °F

Location of EinsiedelnLocation

Historic Weather in Einsiedeln — Graph

°F

Einsiedeln Temperature Yesterday

Maximum temperature yesterday: 44 °F (at 3:00 PM)
Minimum temperature yesterday: 30 °F (at 12:00 AM)
Average temperature yesterday: 36 °F

High & Low Weather Summary for the Past Weeks

 TemperatureHumidityPressure
High60 °F (Feb 1, 1:00 PM)97% (Jan 31, 3:00 AM)30.53 "Hg (Jan 31, 3:00 AM)
Low30 °F (Feb 11, 12:00 AM)29% (Feb 6, 2:00 PM)29.32 "Hg (Feb 9, 6:00 PM)
Average43 °F74%30.10 "Hg
* Reported Jan 28 10:00 AM — Feb 12 10:00 AM, Einsiedeln, Weather by CustomWeather, © 2016

Note: Actual official high and low records may vary slightly from our data, if they occured in-between our weather recording intervals... More about our weather records

Advertising

Einsiedeln Weather History for the Previous 24 Hours

 ConditionsComfort  
Time TempWeatherWind HumidityBarometerVisibility
10:00 AM
Fri, Feb 12
37 °FPassing clouds.3 mph84%29.62 "Hg19 mi
9:00 AM31 °FChilly.1 mph92%29.69 "HgN/A
8:00 AM33 °FChilly.1 mph92%29.72 "HgN/A
7:00 AM32 °FPassing clouds.2 mph94%29.75 "Hg11 mi
6:00 AM35 °FChilly.1 mph91%29.76 "HgN/A
5:00 AM35 °FChilly.1 mph92%29.77 "HgN/A
4:00 AM36 °FLight rain. Overcast.1 mph88%29.78 "Hg9 mi
9:00 PM
Thu, Feb 11
36 °FChilly.2 mph68%29.79 "HgN/A
8:00 PM36 °FChilly.3 mph63%29.77 "HgN/A
7:00 PM38 °FPassing clouds.3 mph58%29.78 "Hg9 mi
6:00 PM40 °FChilly.1 mph54%29.76 "HgN/A
5:00 PM41 °FQuite cool.1 mph48%29.75 "HgN/A
4:00 PM42 °FOvercast.3 mph45%29.75 "Hg12 mi
3:00 PM44 °FQuite cool.6 mph47%29.75 "HgN/A
2:00 PM42 °FQuite cool.6 mph42%29.78 "HgN/A
1:00 PM42 °FPassing clouds.7 mph48%29.81 "Hg19 mi
12:00 PM40 °FQuite cool.5 mph44%29.84 "HgN/A
11:00 AM39 °FChilly.1 mph44%29.85 "HgN/A
Weather by CustomWeather, © 2016

See weather overviewHow to use our weather pages